• Processing (Info)

  • MPEC 2012-T44 : 2012 TG53

    The following Minor Planet Electronic Circular may be linked-to from your own Web pages, but must not otherwise be redistributed electronically.

    A form allowing access to any MPEC is at the bottom of this page.


    Read MPEC 2012-T43 Read MPEC 2012-T45


    M.P.E.C. 2012-T44                                Issued 2012 Oct. 10, 18:30 UT
    
         The Minor Planet Electronic Circulars contain information on unusual
             minor planets and routine data on comets.  They are published
       on behalf of Commission 20 of the International Astronomical Union by the
              Minor Planet Center, Smithsonian Astrophysical Observatory,
                              Cambridge, MA 02138, U.S.A.
    
                 Prepared using the Tamkin Foundation Computer Network
    
                                  MPC@CFA.HARVARD.EDU
                URL https://www.minorplanetcenter.net/    ISSN 1523-6714
    
                                       2012 TG53
    
    Observations:
         K12T53G* C2012 10 09.11464 21 15 59.32 -20 13 20.0          17.7 VrET044703
         K12T53G  C2012 10 09.11970 21 16 12.54 -20 11 45.5          17.6 VrET044703
         K12T53G  C2012 10 09.12478 21 16 25.96 -20 10 10.2          17.6 VrET044703
         K12T53G  C2012 10 09.17819 21 18 46.29 -19 53 15.0          17.4 VrET044703
         K12T53G  C2012 10 09.17865 21 18 47.48 -19 53 06.9          17.5 VrET044703
         K12T53G  C2012 10 09.17911 21 18 48.67 -19 52 58.3          17.5 VrET044703
         K12T53G  C2012 10 09.17956 21 18 49.89 -19 52 49.3          17.7 VrET044703
         K12T53G  C2012 10 09.20602 21 19 59.39 -19 44 19.6          17.4 RcET044854
         K12T53G  C2012 10 09.20708 21 20 02.24 -19 43 58.9          17.6 RcET044854
         K12T53G  C2012 10 09.20815 21 20 05.03 -19 43 38.7          18.3 RcET044854
         K12T53G  C2012 10 09.25275 21 22 02.28 -19 29 12.1          17.8 VrET044703
         K12T53G  C2012 10 09.25321 21 22 03.54 -19 29 02.7          17.7 VrET044703
         K12T53G  C2012 10 09.25367 21 22 04.72 -19 28 53.8          17.8 VrET044703
         K12T53G  C2012 10 09.25413 21 22 05.98 -19 28 44.3          17.5 VrET044703
         K12T53G  C2012 10 09.49684 21 33 09.96 -18 09 52.5          17.5 VuET044900
         K12T53G  C2012 10 09.49819 21 33 13.47 -18 09 25.5          17.4 VuET044900
         K12T53G  C2012 10 09.49954 21 33 16.92 -18 08 58.8          18.0 VuET044900
         K12T53G  C2012 10 09.50089 21 33 20.55 -18 08 30.2          17.2 VuET044900
         K12T53G KC2012 10 09.79433 21 46 24.29 -16 30 25.9          17.7 VuET044C43
         K12T53G KC2012 10 09.79705 21 46 31.28 -16 29 30.3          17.6 VuET044C43
         K12T53G KC2012 10 09.79877 21 46 35.56 -16 28 55.3          17.7 VuET044C43
         K12T53G KC2012 10 09.80154 21 46 42.64 -16 27 58.7          17.3 VuET044C43
         K12T53G KC2012 10 09.80425 21 46 49.57 -16 27 02.6          17.6 VuET044C43
         K12T53G KC2012 10 09.81597 21 47 19.31 -16 23 03.4          17.7 VuET044C43
         K12T53G KC2012 10 09.81886 21 47 26.67 -16 22 04.3          18.5 VuET044C43
         K12T53G KC2012 10 09.82283 21 47 36.75 -16 20 42.7          17.5 VuET044C43
         K12T53G KC2012 10 09.82636 21 47 45.70 -16 19 30.1          17.5 VuET044C43
         K12T53G KC2012 10 09.82736 21 47 48.24 -16 19 09.6          17.5 VuET044C43
         K12T53G KC2012 10 09.83586 21 48 09.82 -16 16 15.5          17.6 VuET044C43
         K12T53G KC2012 10 09.83758 21 48 14.16 -16 15 40.1          17.4 VuET044C43
         K12T53G KC2012 10 09.84110 21 48 23.13 -16 14 27.1          17.6 VuET044C43
         K12T53G KC2012 10 09.84471 21 48 32.28 -16 13 13.5          17.6 VuET044C43
         K12T53G KC2012 10 09.84855 21 48 41.93 -16 11 54.7          17.6 VuET044C43
         K12T53G  C2012 10 09.85733 21 49 07.40 -16 08 39.6          17.3 VvET044I93
         K12T53G  C2012 10 09.86181 21 49 18.65 -16 07 08.1          16.9 VvET044I93
         K12T53G  C2012 10 09.86478 21 49 26.17 -16 06 07.1          17.1 VvET044I93
         K12T53G  C2012 10 09.86710 21 49 32.02 -16 05 19.1          17.2 VvET044I93
         K12T53G  C2012 10 09.86929 21 49 37.52 -16 04 33.8          16.8 VvET044I93
         K12T53G  C2012 10 09.87264 21 49 45.95 -16 03 25.0          17.0 VvET044I93
         K12T53G  C2012 10 09.95590 21 53 17.84 -15 33 54.6          17.3 VoET044954
         K12T53G  C2012 10 09.97649 21 54 08.76 -15 26 47.5          17.0 VoET044954
         K12T53G |C2012 10 10.06186 21 57 55.42 -14 52 51.4          17.3 VuET044807
         K12T53G |C2012 10 10.06423 21 58 01.20 -14 52 01.9          17.2 VuET044807
         K12T53G |C2012 10 10.06657 21 58 06.95 -14 51 13.2          17.4 VuET044807
         K12T53G |C2012 10 10.07123 21 58 18.35 -14 49 37.0          17.4 VuET044807
         K12T53G  C2012 10 10.07345 21 58 34.58 -14 53 27.2          18.1 RoET044G48
         K12T53G  C2012 10 10.07384 21 58 35.53 -14 53 19.3          17.8 RoET044G48
         K12T53G  C2012 10 10.07422 21 58 36.50 -14 53 11.7          17.9 RoET044G48
         K12T53G  C2012 10 10.07501 21 58 38.46 -14 52 54.7          18.1 RoET044G48
         K12T53G  C2012 10 10.07541 21 58 39.45 -14 52 46.5          17.9 RoET044G48
         K12T53G KC2012 10 10.11002 22 00 00.42 -14 41 19.9          17.2 RuET044H36
         K12T53G KC2012 10 10.11395 22 00 10.06 -14 39 58.6          17.0 RuET044H36
         K12T53G KC2012 10 10.12189 22 00 29.45 -14 37 13.2          17.4 RuET044H36
    
    Observer details:
    703 Catalina Sky Survey.  Observer R. E. Hill.  Measurers A. Boattini,
        E. J. Christensen, A. R. Gibbs, A. D. Grauer, R. E. Hill, R. A. Kowalski,
        S. M. Larson, R. H. McNaught.  0.68-m Schmidt + CCD.
    807 Cerro Tololo.  Observers T. Linder, R. Holmes, R. Sampson.  0.41-m f/11
        Ritchey-Chretien + CCD.
    854 Sabino Canyon Observatory, Tucson.  Observer J. E. McGaha.  0.36-m f/10.0
        Schmidt-Cassegrain + CCD.
    900 Moriyama.  Observer Y. Ikari.  0.26-m f/7.0 reflector + CCD.
    954 Teide Observatory.  Observer N. E. Pritchett.  0.35-m f/11
        Schmidt-Cassegrain + CCD.
    C43 Hoyerswerda.  Observer P. Lindner.  0.30-m f/6.3 Schmidt-Cassegrain + CCD.
    G48 Doc Greiner Research Obs., Rancho Hildalgo.  Observer M. Mills.  0.40-m
        f/10 Schmidt-Cassegrain + CCD.
    H36 Sandlot Observatory, Scranton.  Observer G. Hug.  0.56-m reflector + CCD.
    I93 St Pardon de Conques.  Observer F. Losse.  0.40-m f/5.0 reflector + CCD.
    
    Orbital elements:
    2012 TG53                                                Earth MOID = 0.0051 AU
    Epoch 2012 Sept. 30.0 TT = JDT 2456200.5                MPC
    M   5.35624              (2000.0)            P               Q
    n   0.30667682     Peri.  323.61451     +0.94402123     +0.32959657
    a   2.1777871      Node    17.15694     -0.29056597     +0.85056260
    e   0.5627787      Incl.    2.67842     -0.15619007     +0.40976745
    P   3.21           H   23.2           G   0.15           U   7
    Residuals in seconds of arc
    121009 703  0.2-  0.3+    121009 C43  0.1-  0.3-    121009 I93  0.2-  0.2-
    121009 703  1.5-  0.2-    121009 C43  0.8+  0.2-    121009 I93  0.4-  0.0
    121009 703  0.7-  0.4-    121009 C43  0.6-  0.3-    121009 I93  0.5-  0.2-
    121009 703  0.0   0.7+    121009 C43  0.1-  0.3-    121009 954  0.5+  0.8+
    121009 703  0.2-  0.0     121009 C43  0.4+  0.4+    121009 954  1.9-  0.8-
    121009 703  0.5-  0.3-    121009 C43  0.4-  0.2-    121010 807  0.1-  0.4-
    121009 703  0.1+  0.1+    121009 C43  0.1-  0.3-    121010 807  0.5-  0.1-
    121009 854  0.0   0.3+    121009 C43  0.1-  0.1-    121010 807  0.3-  0.0
    121009 854  0.9+  0.5+    121009 C43  0.3-  0.2+    121010 807  0.4-  0.6-
    121009 854  0.6+  0.1+    121009 C43  0.3-  0.1+    121010 G48  0.3-  0.1+
    121009 703  0.9-  0.7-    121009 C43  0.1-  0.3-    121010 G48  0.5-  0.0
    121009 703  0.3-  0.3-    121009 C43  0.4-  0.2-    121010 G48  0.0   0.2-
    121009 703  0.7-  0.4-    121009 C43  0.2+  0.4+    121010 G48  0.2+  0.6+
    121009 703  0.1-  0.1+    121009 C43  0.1+  0.2-    121010 G48  0.2+  0.5+
    121009 900  0.5-  0.6-    121009 C43  1.1-  0.5-    121010 H36  0.2-  0.1-
    121009 900  0.2-  0.6-    121009 I93  0.4-  0.1+    121010 H36  0.1+  0.3-
    121009 900  0.7-  0.9-    121009 I93  0.9-  0.5-    121010 H36  0.4-  0.4+
    121009 900  1.4+  0.7+    121009 I93  0.3-  0.5-
    
    Ephemeris:
    2012 TG53                a,e,i = 2.18, 0.56, 3                   q = 0.9522
    Date    TT    R. A. (2000) Decl.     Delta      r     Elong.  Phase     V
    2012 09 10    15 20 32.4 -27 41 01   0.1826  0.9528    67.7   102.1    23.1
    ...
    2012 09 25    16 11 17.6 -30 39 09   0.09459 0.9663    64.7   110.2    22.2
    ...
    2012 10 03    17 39 40.4 -32 30 03   0.05020 0.9895    75.8   101.3    20.4
    ...
    2012 10 09    21 10 39.7 -20 45 22   0.03017 1.0133   117.9    60.6    17.8
    2012 10 10    21 55 15.0 -15 15 43   0.03025 1.0178   128.7    49.9    17.5
    2012 10 11    22 35 39.3 -09 31 17   0.03160 1.0224   139.1    39.8    17.3
    ...
    2012 10 17    00 51 30.8 +11 28 00   0.05665 1.0525   170.7     8.8    17.7
    ...
    2012 10 25    01 46 31.7 +18 35 08   0.1052  1.0988   172.9     6.4    19.0
    ...
    2012 11 09    02 17 06.1 +21 21 50   0.2121  1.1996   169.5     8.7    20.8
    
    A. U. Tomatic                (C) Copyright 2012 MPC           M.P.E.C. 2012-T44
    

    Read MPEC 2012-T43 Read MPEC 2012-T45


    MPEC number:

    Enter an MPEC number in one of the following forms:

    • 1997-B01 (the full form)
    • J97B01 (the packed version of the full form)
    • B01 (the abbreviated form)